Temp
52 46 43 48 52 54 53 51 46 54 61 56 54 54 59 64 63 61 63 64 66 69 73 75 75 76 74 74 73 74 73 72 71 69 67 66 66 67 68 69 69 68 68 67
47 43 52 55 55 53 52 48 47 54 59 53 51 50 56 61 63 64 64 65 66 67 70 73 73 72 72 72 72 72 73 73 72 71 70 69 69 68 69 69 69 69 68 68
45 50 56 54 51 48 48 46 47 48 53 53 50 47 52 58 62 65 67 68 67 67 68 70 70 70 69 70 70 72 72 73 73 72 70 69 69 68 67 67 68 69 69 67
48 55 52 50 49 50 43 51 50 47 43 36 49 34 47 54 57 62 64 62 64 66 69 71 70 69 69 69 69 71 72 73 73 72 70 68 67 65 69 68 69 68 68 68
45 49 49 46 49 53 46 53 49 47 41 39 40 36 42 51 51 57 61 62 64 66 67 67 67 67 67 68 67 68 69 70 71 72 71 69 67 68 70 70 66 67 67 68
49 53 53 52 55 55 52 48 46 46 42 32 39 39 38 48 53 56 59 63 65 64 63 65 65 67 66 66 65 66 67 68 69 68 70 70 68 67 67 67 66 66 67 67
41 44 49 54 48 51 49 43 30 27 28 27 44 39 44 53 57 57 58 59 60 64 62 62 61 62 63 62 63 64 64 64 66 66 66 67 69 69 68 67 67 67 66 65
35 32 43 50 49 43 45 43 30 21 25 28 40 31 42 54 57 58 59 59 60 61 60 60 60 61 61 62 62 62 63 63 64 64 64 65 66 69 70 70 69 69 69 68
36 37 46 49 52 50 42 38 47 34 25 25 34 40 49 52 54 55 56 57 56 57 57 58 58 60 60 60 61 61 61 61 62 62 62 62 63 64 67 69 70 70 70 71
44 36 42 45 49 49 47 49 34 35 21 19 30 32 38 45 50 54 55 54 54 56 56 57 59 59 59 59 61 61 61 60 61 61 61 62 62 62 65 68 68 69 70 70
49 42 35 40 38 38 41 40 41 40 34 27 25 32 50 52 51 51 52 54 54 55 56 56 57 58 58 58 58 58 59 59 59 60 60 59 59 60 62 64 66 67 68 69
48 38 30 36 42 45 47 42 43 35 29 32 32 33 52 49 51 51 52 54 54 55 55 55 56 56 55 56 56 57 57 58 58 59 58 58 59 59 60 62 63 65 66 67
42 34 28 29 34 38 37 42 46 45 40 32 25 35 55 54 49 52 51 52 54 55 50 54 53 53 53 54 55 56 56 56 57 57 57 57 57 57 57 60 62 63 63 64
47 35 35 31 36 35 33 39 42 42 34 35 35 37 46 49 49 50 52 52 52 51 53 53 52 52 52 54 53 54 54 55 55 55 56 55 55 57 58 58 59 60 62 62
39 33 33 37 38 42 37 38 40 39 40 35 40 39 46 51 51 52 52 52 53 53 54 52 52 51 51 52 52 53 52 53 53 53 53 53 54 55 56 56 56 57 58 59
40 33 33 28 35 36 34 38 40 41 42 42 43 42 53 56 53 52 53 52 52 52 53 54 54 52 52 53 51 52 51 51 50 50 50 51 51 51 50 51 51 52 53 56
34 33 31 29 32 30 25 32 37 40 44 44 38 45 53 52 53 52 49 53 53 52 53 53 52 52 52 51 52 48 49 49 47 45 46 47 46 45 46 46 47 47 49 52
34 33 31 25 29 20 33 44 42 40 44 46 47 49 51 52 55 51 53 54 52 53 52 52 51 51 50 50 49 49 47 45 43 41 42 41 40 41 41 42 43 44 45 46
40 33 27 22 19 26 36 37 38 37 38 47 46 49 51 53 49 50 57 53 56 52 52 51 50 50 48 48 48 46 42 40 38 39 38 38 38 38 39 39 40 41 40 41
37 39 31 23 20 14 32 43 46 43 31 45 47 47 48 49 38 47 50 52 52 51 50 48 49 48 47 46 45 40 38 37 39 41 40 37 36 36 38 38 38 38 38 38
30 31 28 26 20 24 37 39 45 25 31 43 47 49 48 43 48 48 50 48 48 48 49 48 46 46 46 43 40 38 37 36 41 39 39 36 36 35 37 36 37 37 37 37
29 27 27 28 25 22 38 40 36 40 39 39 42 43 43 45 46 46 47 47 47 44 45 44 41 39 40 40 38 37 35 39 37 37 37 38 38 37 37 36 36 36 36 36
27 33 28 31 29 38 39 39 45 42 43 41 41 43 45 45 45 46 46 44 44 41 38 39 38 38 37 37 37 38 39 37 37 35 37 37 37 36 36 35 35 36 36 36
32 39 29 31 35 36 39 41 42 43 40 41 41 40 41 39 39 36 38 38 37 37 37 35 34 34 35 34 36 38 40 35 34 35 36 35 34 35 36 36 35 36 36 36
34 37 30 28 34 36 40 40 41 43 38 33 35 35 36 35 33 33 33 34 34 35 35 32 32 35 36 35 35 36 36 34 35 35 36 34 35 35 35 35 36 37 38 38
36 33 32 28 34 39 33 29 30 31 28 28 27 27 29 29 28 29 30 31 31 32 32 32 33 34 35 36 37 37 32 32 33 33 33 34 34 34 34 35 37 41 39 39
MSLP
1017.59 1017.52 1016.56 1016.87 1017.04 1016.88 1016.44 1016.32 1016.21 1015.64 1015.29 1015.53 1015.64 1015.48 1015.04 1014.18 1014.06 1013.78 1013.65 1013.28 1013.16 1013.02 1012.76 1012.76 1012.70 1013.06 1013.47 1013.71 1014.23 1014.70 1015.34 1015.88 1016.63 1017.20 1017.69 1018.18 1018.30 1018.42 1018.53 1018.54 1018.67 1018.98 1019.39 1019.84
1017.28 1015.96 1016.60 1016.83 1016.83 1016.83 1016.59 1016.46 1016.37 1016.12 1015.58 1015.90 1016.03 1015.67 1015.36 1014.47 1013.42 1013.23 1013.13 1012.97 1012.99 1012.81 1012.47 1012.33 1012.46 1012.51 1012.66 1013.14 1013.60 1014.10 1014.56 1015.20 1015.77 1016.34 1016.75 1017.15 1017.46 1017.59 1017.68 1017.72 1018.02 1018.28 1018.54 1018.82
1015.76 1015.48 1016.33 1016.18 1016.39 1016.68 1016.80 1016.81 1016.85 1016.87 1016.50 1016.48 1016.70 1015.13 1014.53 1013.81 1013.09 1012.46 1012.22 1012.30 1012.59 1012.74 1012.61 1012.42 1012.30 1012.39 1012.37 1012.55 1012.91 1013.45 1013.90 1014.54 1015.10 1015.62 1016.26 1016.66 1016.98 1017.08 1017.07 1017.00 1017.11 1016.97 1017.44 1017.82
1015.65 1015.56 1015.67 1015.79 1015.82 1016.51 1016.66 1016.99 1017.36 1017.62 1018.05 1017.88 1017.47 1015.46 1014.05 1013.25 1012.69 1012.06 1011.65 1011.86 1012.22 1012.35 1012.22 1012.18 1012.23 1012.33 1012.45 1012.42 1012.51 1012.73 1013.17 1013.64 1014.14 1014.77 1015.48 1015.81 1015.93 1015.98 1015.56 1015.87 1016.20 1016.34 1016.48 1016.81
1014.45 1014.66 1015.16 1015.40 1015.27 1016.11 1016.61 1017.10 1017.94 1018.50 1018.88 1018.85 1018.63 1018.00 1013.98 1013.25 1012.60 1011.65 1011.07 1011.16 1011.46 1011.61 1011.78 1012.00 1012.11 1012.15 1012.23 1012.39 1012.63 1012.66 1012.75 1013.04 1013.32 1013.66 1014.09 1014.73 1015.04 1015.11 1015.21 1015.55 1015.66 1015.79 1015.74 1015.90
1014.54 1014.46 1014.59 1014.36 1015.30 1015.86 1016.94 1017.94 1018.95 1019.47 1019.90 1019.12 1018.69 1018.14 1013.30 1012.71 1011.78 1011.04 1010.92 1010.86 1011.05 1011.33 1011.68 1012.03 1012.36 1012.45 1012.79 1012.88 1012.90 1012.99 1013.10 1013.04 1013.09 1013.33 1013.50 1013.75 1014.10 1014.34 1014.51 1014.57 1014.67 1014.81 1015.03 1015.21
1014.83 1015.10 1014.68 1014.35 1015.19 1015.83 1016.78 1018.16 1019.72 1020.40 1020.45 1018.35 1017.29 1017.16 1012.85 1011.38 1011.08 1011.19 1011.16 1011.18 1011.41 1011.39 1012.06 1012.62 1013.07 1013.13 1013.29 1013.38 1013.34 1013.34 1013.34 1013.30 1013.23 1013.21 1013.22 1013.18 1013.15 1013.39 1013.62 1013.83 1013.95 1013.98 1014.10 1014.25
1014.67 1015.65 1015.01 1014.46 1014.41 1015.22 1016.43 1017.14 1017.65 1018.94 1019.31 1017.96 1017.60 1015.13 1012.51 1011.54 1011.06 1010.95 1010.84 1011.37 1011.67 1011.99 1012.66 1012.96 1013.38 1013.47 1013.61 1013.67 1013.72 1013.70 1013.67 1013.61 1013.54 1013.35 1013.21 1012.88 1012.71 1012.57 1012.44 1012.56 1012.63 1012.65 1012.68 1012.82
1013.93 1014.53 1014.65 1014.50 1014.83 1015.33 1016.36 1016.34 1017.11 1018.29 1018.88 1018.47 1016.43 1014.00 1012.50 1011.49 1011.34 1011.09 1011.39 1011.52 1012.02 1012.71 1013.15 1013.34 1013.50 1013.62 1013.75 1013.76 1013.75 1013.74 1013.73 1013.64 1013.54 1013.42 1013.18 1012.88 1012.52 1012.28 1011.97 1011.63 1011.58 1011.56 1011.51 1011.51
1012.59 1014.29 1014.76 1015.45 1015.34 1015.08 1015.17 1016.39 1017.64 1018.14 1018.71 1017.99 1015.71 1014.15 1012.30 1011.41 1011.42 1011.23 1011.45 1011.83 1012.38 1013.04 1013.32 1013.53 1013.55 1013.59 1013.62 1013.50 1013.54 1013.54 1013.56 1013.49 1013.27 1013.06 1012.87 1012.62 1012.35 1012.02 1011.71 1011.33 1010.88 1010.54 1010.42 1010.47
1012.46 1013.36 1015.64 1016.03 1015.69 1015.12 1015.96 1015.82 1016.25 1016.90 1017.37 1016.30 1015.40 1013.33 1011.43 1011.04 1011.27 1011.35 1011.67 1012.01 1012.53 1013.18 1013.41 1013.58 1013.65 1013.67 1013.74 1013.68 1013.56 1013.54 1013.49 1013.38 1013.20 1012.95 1012.61 1012.36 1012.08 1011.73 1011.43 1011.02 1010.42 1009.91 1009.62 1009.56
1012.28 1014.24 1015.25 1015.41 1015.69 1015.66 1015.37 1014.97 1015.30 1015.47 1015.71 1015.79 1015.01 1012.81 1010.41 1010.54 1010.85 1011.15 1011.91 1012.20 1012.63 1012.85 1013.20 1013.52 1013.64 1013.74 1013.88 1013.92 1013.68 1013.58 1013.45 1013.37 1013.18 1012.81 1012.54 1012.17 1011.68 1011.33 1011.03 1010.61 1010.09 1009.56 1009.05 1008.66
1012.19 1013.81 1015.02 1016.35 1016.89 1016.13 1015.40 1014.93 1014.75 1014.82 1014.95 1014.95 1014.74 1012.36 1011.18 1010.25 1010.37 1010.65 1011.51 1012.07 1012.36 1012.72 1013.05 1013.41 1013.67 1013.80 1013.82 1013.80 1013.77 1013.60 1013.48 1013.44 1013.29 1012.84 1012.65 1012.18 1011.62 1011.13 1010.71 1010.18 1009.66 1009.18 1008.65 1008.10
1011.62 1012.97 1012.79 1012.86 1012.68 1014.24 1015.13 1014.34 1014.24 1014.10 1014.26 1013.42 1013.01 1012.04 1010.76 1010.69 1010.64 1010.98 1011.31 1011.43 1011.99 1012.40 1012.73 1012.89 1013.24 1013.51 1013.70 1013.86 1013.80 1013.69 1013.64 1013.54 1013.35 1013.12 1012.83 1012.34 1011.68 1011.10 1010.40 1009.79 1009.34 1008.85 1008.24 1007.64
1012.01 1012.76 1013.24 1012.70 1012.74 1012.57 1012.74 1013.05 1013.20 1013.12 1012.37 1012.40 1011.09 1011.40 1010.29 1009.27 1009.80 1010.60 1010.82 1011.30 1011.73 1012.11 1012.40 1012.63 1013.16 1013.51 1013.61 1013.65 1013.69 1013.65 1013.62 1013.50 1013.41 1013.27 1012.93 1012.47 1011.87 1011.16 1010.55 1009.94 1009.33 1008.75 1008.04 1007.24
1011.83 1012.35 1013.27 1013.52 1013.30 1013.22 1012.91 1012.72 1012.58 1011.80 1010.91 1011.18 1010.53 1010.22 1009.50 1008.68 1009.34 1009.89 1010.38 1010.70 1011.19 1011.43 1011.75 1012.06 1012.61 1012.96 1013.23 1013.27 1013.39 1013.37 1013.46 1013.43 1013.43 1013.32 1013.10 1012.55 1011.95 1011.33 1010.81 1010.11 1009.43 1008.83 1007.77 1006.91
1011.65 1012.60 1013.21 1013.08 1013.71 1014.33 1013.46 1010.93 1010.70 1011.23 1010.70 1009.83 1009.86 1008.66 1008.71 1008.57 1008.42 1009.24 1009.78 1010.03 1010.26 1010.65 1011.00 1011.44 1011.90 1012.30 1012.64 1012.86 1012.90 1013.24 1013.24 1013.26 1013.31 1013.17 1012.89 1012.43 1011.83 1011.24 1010.65 1010.02 1009.43 1008.61 1007.61 1006.69
1011.19 1012.50 1013.19 1013.85 1013.92 1013.12 1010.54 1009.83 1010.17 1010.10 1009.47 1009.43 1009.28 1008.17 1007.76 1008.03 1007.85 1008.95 1009.01 1008.93 1009.48 1009.72 1010.00 1010.59 1011.10 1011.64 1012.24 1012.38 1012.50 1012.66 1012.85 1013.00 1012.96 1012.75 1012.44 1012.09 1011.69 1011.22 1010.55 1009.88 1009.15 1008.29 1007.57 1006.78
1011.11 1012.10 1013.01 1013.68 1013.59 1011.43 1009.27 1009.16 1009.14 1009.70 1008.50 1008.20 1008.00 1007.62 1007.44 1007.61 1008.39 1008.16 1007.49 1008.34 1008.28 1008.75 1009.32 1009.62 1010.21 1010.91 1011.66 1011.89 1012.13 1012.43 1012.68 1012.72 1012.68 1012.28 1011.87 1011.56 1011.31 1010.83 1010.35 1009.68 1008.91 1008.18 1007.49 1006.52
1011.33 1011.64 1012.94 1013.59 1013.34 1011.61 1008.54 1007.44 1007.67 1009.04 1007.34 1007.68 1007.81 1007.00 1006.54 1006.91 1008.21 1006.25 1007.25 1007.39 1007.72 1008.06 1008.58 1009.29 1009.92 1010.59 1011.13 1011.44 1011.78 1012.27 1012.49 1012.50 1012.21 1011.58 1011.15 1010.86 1010.65 1010.30 1009.86 1009.29 1008.59 1008.01 1007.38 1006.25
1011.34 1011.81 1012.03 1012.78 1012.69 1010.36 1008.12 1007.51 1008.00 1009.02 1007.11 1006.20 1006.09 1006.07 1006.50 1006.94 1006.73 1007.09 1007.13 1007.31 1007.59 1008.17 1008.73 1009.39 1009.94 1010.45 1010.70 1011.04 1011.48 1011.94 1012.00 1011.99 1011.17 1010.80 1010.36 1010.03 1009.77 1009.49 1009.12 1008.36 1007.89 1007.22 1006.57 1005.71
1009.53 1010.90 1011.44 1012.02 1011.71 1009.70 1007.70 1007.75 1007.64 1007.00 1006.51 1006.52 1006.17 1006.14 1006.38 1006.52 1006.79 1007.04 1007.45 1007.68 1008.14 1008.73 1009.32 1009.83 1010.32 1010.66 1010.69 1010.85 1011.18 1011.25 1011.20 1010.67 1010.33 1010.06 1009.75 1009.35 1008.90 1008.49 1008.12 1007.63 1006.76 1006.27 1005.77 1004.92
1009.24 1007.97 1008.94 1009.42 1008.21 1007.44 1006.89 1006.74 1006.50 1006.43 1006.67 1006.54 1006.90 1007.21 1007.32 1007.60 1007.86 1008.01 1008.38 1008.72 1008.98 1009.38 1010.06 1010.36 1010.50 1010.51 1010.60 1010.71 1010.85 1010.69 1010.26 1010.09 1009.74 1009.45 1009.02 1008.58 1008.10 1007.79 1007.36 1006.77 1005.85 1005.25 1004.73 1004.10
1008.31 1007.73 1008.25 1008.68 1007.71 1007.59 1007.34 1007.28 1007.22 1007.00 1007.41 1007.61 1008.13 1008.68 1008.94 1009.31 1009.40 1009.65 1009.81 1009.98 1010.17 1010.16 1010.43 1010.58 1010.57 1010.50 1010.34 1010.44 1010.25 1009.89 1009.43 1009.30 1009.06 1008.63 1008.13 1007.78 1007.30 1006.52 1006.10 1005.50 1004.82 1004.11 1003.52 1003.15
1007.30 1007.86 1008.27 1008.59 1008.11 1008.18 1007.99 1007.85 1007.99 1008.06 1008.95 1009.57 1009.81 1010.21 1010.59 1010.69 1010.92 1011.00 1011.18 1011.20 1011.06 1010.87 1010.86 1010.87 1010.69 1010.20 1009.54 1009.53 1009.09 1008.90 1008.67 1008.54 1008.19 1007.65 1007.05 1006.64 1006.15 1005.38 1004.49 1003.86 1003.13 1002.58 1001.69 1001.72
1007.71 1008.14 1008.80 1009.50 1009.59 1008.95 1010.09 1010.76 1010.52 1010.50 1011.55 1011.93 1012.21 1012.36 1012.61 1012.79 1012.78 1012.53 1012.18 1011.79 1011.51 1011.36 1011.22 1011.04 1010.67 1009.94 1009.02 1008.72 1008.00 1008.03 1007.86 1007.60 1007.15 1006.45 1005.89 1005.26 1004.87 1004.20 1003.52 1002.55 1001.14 1000.72 1000.00 999.76
Wind_Speed
10 6 14 13 13 11 9 8 3 8 8 8 9 10 14 15 10 10 9 9 9 8 8 7 9 8 8 9 10 11 13 13 11 10 10 9 10 9 9 9 12 12 11 12
6 17 12 12 13 13 11 10 7 9 4 2 7 14 13 15 14 9 10 9 9 8 8 9 9 9 10 10 9 9 11 12 13 10 9 9 9 9 10 9 10 12 13 13
17 4 15 13 11 14 13 12 8 6 5 5 5 20 20 15 21 19 13 12 8 9 9 9 7 8 9 10 10 11 10 11 12 13 8 8 7 7 9 10 11 13 15 14
14 16 17 15 18 12 14 6 5 2 3 4 4 10 9 8 10 18 18 10 9 9 10 11 8 8 8 8 7 8 10 10 10 12 11 14 12 13 13 11 11 12 15 16
8 15 17 17 17 14 7 8 9 6 5 5 7 10 5 7 10 11 6 10 10 10 8 7 6 2 4 6 3 2 6 8 9 12 14 12 13 11 10 9 10 13 13 17
12 2 12 14 12 10 8 7 7 4 2 10 7 9 5 10 11 7 4 8 8 5 3 4 7 8 7 7 7 6 5 5 5 6 10 15 16 14 11 11 9 9 10 11
5 1 2 4 9 7 12 11 2 2 5 8 11 12 15 11 10 6 6 4 2 5 8 8 8 6 5 5 5 5 5 5 6 7 7 8 14 16 16 14 10 11 9 11
12 10 10 6 8 8 17 14 7 9 7 4 8 10 8 5 5 5 2 5 5 7 7 8 6 5 4 4 5 6 5 6 7 7 8 7 8 8 11 15 13 12 11 12
13 12 5 5 6 14 12 19 9 3 2 2 7 6 10 6 6 7 6 5 6 9 6 6 4 3 2 3 3 3 6 7 7 7 7 8 7 8 10 15 14 13 14 13
7 6 5 7 2 10 11 7 7 4 5 5 6 7 6 2 5 4 7 9 9 8 6 2 3 4 3 2 3 4 6 7 7 8 6 6 7 7 9 11 14 16 16 16
11 7 3 6 10 12 7 14 8 5 7 6 2 6 11 13 3 5 2 9 9 7 5 1 3 4 4 4 5 5 6 7 7 7 7 7 7 7 9 11 13 13 14 16
13 4 5 12 3 4 18 9 19 9 8 5 3 7 7 4 4 2 9 8 7 5 2 3 3 3 5 5 5 6 6 6 7 7 7 8 7 7 9 11 12 12 14 14
12 7 6 4 2 4 8 14 16 18 3 9 6 10 13 11 3 5 11 9 8 7 1 1 1 2 2 4 5 6 6 7 7 7 8 9 8 8 8 10 12 12 13 14
13 5 10 13 13 11 13 20 18 19 14 17 10 9 15 11 8 8 9 9 6 3 2 1 3 4 4 4 4 5 6 7 7 7 10 11 10 11 11 10 11 13 13 14
9 13 6 4 4 11 15 18 26 24 25 17 23 20 21 22 13 8 9 8 6 6 6 4 2 2 4 4 3 5 5 6 6 9 10 12 12 13 13 13 13 14 15 14
10 6 6 3 4 7 3 11 19 26 28 22 18 16 20 24 9 8 9 8 8 8 8 7 7 4 4 4 3 3 5 5 5 8 10 11 12 12 12 13 13 14 15 15
12 8 8 9 10 4 2 24 16 13 20 23 21 26 23 22 20 11 4 7 10 9 8 9 8 5 4 4 3 4 5 4 6 7 8 11 10 11 12 12 13 14 15 14
9 9 4 4 9 8 10 10 22 19 17 21 23 22 22 22 22 6 12 13 8 9 9 8 7 5 4 4 4 4 4 6 7 7 8 8 8 10 11 12 14 15 13 13
8 5 3 5 3 9 13 4 10 15 24 23 22 23 23 22 8 15 17 7 16 9 9 9 8 5 5 4 7 4 5 7 8 10 8 8 7 9 12 13 14 14 12 13
3 8 5 3 5 12 4 13 16 6 22 10 18 26 28 16 8 18 4 7 10 8 6 8 6 4 5 6 5 4 7 6 11 12 11 8 7 9 12 13 13 11 12 14
6 6 13 9 6 9 6 3 11 10 6 6 11 19 15 10 13 3 5 3 3 5 6 2 3 5 6 6 5 7 7 8 12 10 11 8 7 8 11 14 11 12 14 15
11 10 7 6 10 21 8 11 20 9 3 4 1 0 2 2 2 1 6 7 5 1 3 5 4 6 8 7 6 9 8 11 8 9 11 14 14 11 10 13 13 12 12 15
7 10 8 13 9 2 8 6 10 5 5 2 3 5 8 7 5 5 3 2 3 2 3 4 6 9 7 7 8 13 12 8 10 9 14 14 14 12 12 12 14 12 10 12
5 7 4 5 6 6 8 5 5 5 3 2 2 3 4 1 2 4 5 6 6 5 6 5 7 8 10 7 10 14 13 9 9 14 15 13 13 15 13 10 9 10 10 11
6 10 6 4 4 3 6 6 5 5 9 12 10 9 10 8 6 3 4 6 6 5 4 4 7 11 14 9 12 11 11 9 13 14 15 13 12 14 14 11 11 11 13 12
3 6 8 3 4 4 7 9 16 12 12 11 9 10 8 8 8 7 7 6 6 8 6 9 12 15 18 15 17 12 8 10 13 15 13 12 12 12 12 12 15 19 24 24
Wind_Direction
203 194 205 191 215 220 259 232 278 234 261 188 232 254 262 274 264 247 246 228 233 245 260 238 209 219 204 197 192 191 191 192 183 196 201 205 210 207 211 211 211 200 196 200
175 224 204 216 202 232 234 251 252 288 271 71 305 281 282 281 268 235 242 244 238 245 247 241 235 208 203 198 200 198 201 192 194 199 207 209 211 214 217 214 213 209 202 199
205 188 213 211 216 202 223 232 238 253 343 299 293 278 253 236 248 259 243 237 240 246 262 266 267 251 212 202 196 197 200 203 202 208 200 213 216 222 217 215 215 210 206 203
227 222 199 210 213 203 223 201 264 297 330 247 90 287 294 317 261 239 248 220 230 237 249 249 250 270 275 234 214 199 198 206 202 198 207 212 216 221 227 220 221 215 208 209
201 185 204 207 214 200 214 187 216 231 245 311 251 283 254 204 264 273 225 186 199 221 226 248 254 280 25 23 40 245 215 204 205 207 206 214 221 230 234 230 223 218 216 213
212 97 203 212 193 201 123 93 55 61 43 256 183 218 219 220 229 229 204 185 200 225 184 66 53 37 19 11 24 7 326 276 267 239 217 217 223 229 234 231 228 219 218 216
226 251 299 176 170 152 144 139 142 203 202 239 169 202 242 283 314 292 293 327 349 95 77 69 49 32 27 48 23 345 343 319 291 275 272 247 228 227 234 238 238 232 221 220
182 204 210 192 201 177 179 175 169 183 200 241 188 236 231 138 53 49 89 85 76 42 75 87 85 62 38 358 355 341 326 308 309 303 287 269 263 245 235 237 238 238 233 225
186 221 178 188 194 151 185 216 197 71 9 36 209 264 314 265 295 280 207 243 168 97 93 88 86 73 300 279 305 313 313 293 292 291 297 298 284 266 256 246 241 244 242 241
180 199 183 188 179 228 185 146 178 187 201 233 243 240 238 143 199 190 167 119 109 113 123 142 235 267 311 294 284 287 276 280 280 284 272 277 281 283 281 270 252 244 245 245
214 191 195 130 206 179 189 197 206 159 225 198 217 237 190 221 139 161 152 125 127 149 173 231 9 8 2 2 355 337 327 310 304 297 285 276 281 283 284 277 270 259 251 245
200 131 164 201 44 266 213 210 201 200 203 239 278 252 297 297 327 188 132 126 138 175 147 44 10 11 9 347 343 320 324 328 314 310 308 286 276 280 287 283 275 269 261 253
156 199 133 115 30 305 213 221 215 225 236 195 182 248 243 291 328 267 140 157 187 191 114 38 336 78 359 343 329 333 335 330 323 323 322 306 286 275 273 283 284 277 270 262
151 168 215 197 211 128 203 220 224 213 219 224 222 252 260 248 229 147 170 187 174 178 193 84 0 18 323 324 324 340 336 330 327 330 322 313 311 306 293 285 288 285 280 272
151 201 207 265 27 190 195 200 207 210 219 210 224 222 245 254 237 205 197 150 158 220 223 211 202 273 270 296 329 326 323 321 335 327 322 318 313 314 315 306 299 295 289 279
173 231 173 204 28 346 231 199 212 216 223 227 237 236 238 256 238 230 218 174 202 217 200 202 197 235 271 261 278 302 304 305 331 315 308 308 310 308 307 306 301 295 289 284
158 171 170 222 156 146 267 231 218 227 228 222 225 235 239 250 258 243 264 245 232 202 206 201 195 203 249 250 259 286 284 298 297 283 288 299 301 305 308 301 298 293 291 288
145 180 160 141 138 211 235 186 207 216 230 227 241 246 241 244 256 247 229 233 218 217 202 200 184 183 240 247 271 271 297 302 287 273 274 277 290 298 301 303 300 299 292 288
166 133 137 161 204 313 278 190 176 196 241 231 232 240 247 251 268 261 254 233 245 220 206 197 171 177 218 249 260 267 301 286 289 288 270 266 284 293 302 302 301 300 294 289
87 181 175 129 201 217 344 205 166 130 261 179 217 234 238 239 211 251 197 236 236 223 172 159 167 195 219 254 252 285 282 288 289 295 282 269 273 278 292 293 295 296 289 283
160 171 205 196 230 271 203 135 122 153 247 213 212 231 243 224 229 182 135 112 124 140 144 148 224 225 234 249 254 266 265 264 276 275 283 277 276 275 286 286 286 292 293 285
164 167 189 196 221 251 170 146 175 206 195 187 311 313 212 170 91 59 186 172 152 210 296 289 283 264 258 258 269 267 257 261 268 274 282 287 291 289 288 282 287 288 291 287
199 184 180 187 214 252 184 186 208 123 170 177 109 50 42 35 21 4 355 349 343 350 301 277 274 273 259 245 231 257 262 264 268 273 282 282 286 284 281 276 285 294 289 284
229 212 183 93 230 196 222 255 276 256 21 66 88 101 108 187 2 320 308 295 290 286 280 266 267 266 263 240 242 249 264 248 257 269 277 276 274 280 276 267 260 269 278 282
185 141 173 273 311 352 237 236 325 325 40 35 17 25 25 21 16 3 315 288 279 279 287 258 262 272 273 260 255 250 246 245 256 263 272 271 270 272 273 258 263 263 260 250
197 168 186 180 0 230 66 41 19 45 32 35 23 360 6 9 329 315 301 294 301 302 301 297 287 285 288 285 281 278 238 233 249 262 265 270 276 276 276 279 283 256 253 252